[[{"header":{"parameterUnit":"m.s-1","parameterCategory":1,"la1":30.2991,"la2":30.254,"lo1":-89.0895,"lo2":-89.0444,"dy":0.0017,"dx":0.0017,"nx":28,"ny":28,"refTime":"2025-01-31T09:00:00:Z","depth":0,"parameterNumber":2,"parameterNumberName":"U-component_of_WINDS"},"data":[0,0,0,0,0,0,0,0,0,0,0,0,0,0,0,0,0,0,0,0,0,0,0,0,0,0,0,0,0,0,0,0,0,0,0,0,0,0,0,0,0,0,0,0,0,0,0,0,0,0,0,0,0,0,0,0,0,0,2.2861,2.2862,0,2.2933,2.2934,2.2934,2.2903,2.2902,2.29,2.2898,2.2971,2.2975,2.2978,0,0,0,0,0,0,0,0,0,0,0,0,0,2.27,2.2703,2.2861,2.2862,2.2863,2.2933,2.2934,2.2935,2.2904,2.2901,2.2899,2.2897,2.297,2.2974,2.2978,0,0,0,0,0,0,0,0,0,0,0,0,0,2.2771,2.2704,2.2861,2.2856,2.2856,2.2932,2.2934,2.2935,2.2904,2.2901,2.2899,2.2896,2.2969,2.2974,2.2979,2.3064,0,0,2.2995,2.2998,0,0,0,0,0,0,0,0,2.2767,2.2777,2.2856,2.2857,2.2857,2.2906,2.2903,2.2978,2.2905,2.2886,2.2898,2.2895,2.2952,2.2958,2.2977,2.3068,2.3071,2.2996,2.2999,2.3001,2.3003,0,0,0,0,0,0,0,2.2762,2.2773,2.289,2.2857,2.2858,2.2851,2.2858,2.2917,2.2933,2.2887,2.2885,2.2894,2.2951,2.2972,2.2979,2.3072,2.2996,2.3,2.3004,2.3006,2.3239,2.3241,0,0,0,0,0,0,2.2757,2.2769,2.2887,2.2892,2.2805,2.2856,2.2864,2.2893,2.2932,2.2935,2.2896,2.2892,2.2964,2.2973,2.2981,2.3085,2.3001,2.3006,2.3009,2.3236,2.3239,2.3242,0,0,0,0,0,0,2.2754,2.2768,2.2884,2.283,2.2844,2.2861,2.2895,2.2896,2.2917,2.2939,2.2941,2.2915,2.2963,2.2974,2.3044,2.3087,2.3009,2.3014,2.3232,2.3237,2.3241,2.3293,0,0,0,0,0,0,2.2749,2.2767,2.2799,2.2831,2.2847,2.2946,2.2897,2.2899,2.2926,2.2922,2.2957,2.296,2.2961,2.3037,2.305,2.3093,2.3018,2.3228,2.3234,2.3239,2.3288,2.3299,2.3309,0,0,0,0,0,2.2743,2.281,2.28,2.2815,2.2888,2.2949,2.2958,2.2959,2.293,2.2962,2.2977,2.2959,2.3081,2.3044,2.3059,2.3105,2.3226,2.3233,2.3239,2.3283,2.3297,2.3308,0,0,0,0,0,0,2.2782,2.2814,2.2804,2.2883,2.2913,2.2943,2.2984,2.2973,2.3012,2.3006,2.3005,2.3013,2.3087,2.3103,2.3061,2.3191,2.3149,2.3159,2.3178,2.3191,2.3201,2.3196,2.3022,0,0,0,0,0,2.2799,2.2846,2.2872,2.2939,2.2955,2.2967,2.2994,2.2992,2.3023,2.3036,2.3055,2.3087,2.3132,2.3162,2.3205,2.329,2.3298,2.3329,2.3339,2.3348,2.3357,2.3405,2.342,2.3264,2.3264,2.3264,0,0,2.2836,2.286,2.2889,2.2947,2.2971,2.302,2.2978,2.3031,2.3068,2.3044,2.3112,2.3128,2.3163,2.3242,2.3278,2.3257,2.3401,2.3356,2.3363,2.3367,2.3413,2.3428,2.3441,2.3269,2.3268,2.3267,0,0,2.2929,2.295,2.301,2.3035,2.3071,2.3079,2.3094,2.3126,2.3136,2.3205,2.3188,2.3232,2.331,2.3337,2.336,2.3466,2.3451,2.348,2.3534,2.3581,2.3594,2.3604,2.3644,2.3658,2.3488,2.3488,2.3488,0,2.297,2.3042,2.3042,2.3097,2.3124,2.3106,2.3167,2.3191,2.3239,2.3259,2.3235,2.3335,2.3357,2.3443,2.3469,2.3488,2.3505,2.3476,2.3592,2.3603,2.3613,2.365,2.3665,2.3492,2.3491,2.3491,2.3491,0,2.3092,2.3143,2.3187,2.3235,2.3267,2.3325,2.3334,2.3367,2.3363,2.3374,2.3445,2.3472,2.3521,2.3541,2.3537,2.3627,2.3614,2.3591,2.3549,2.3631,2.3666,2.3681,2.3496,2.3495,2.3494,2.3493,0,0,2.321,2.3259,2.3275,2.3298,2.3337,2.3377,2.3435,2.3483,2.3512,2.3546,2.3596,2.3664,2.3644,2.3671,2.367,2.3711,2.3796,2.3684,2.3685,2.3705,2.3899,2.3917,2.3933,2.3786,2.3789,2.3791,2.3897,0,2.3306,2.3408,2.341,2.3503,2.3551,2.3535,2.3586,2.3617,2.3629,2.3672,2.3686,2.3734,2.3704,2.372,2.376,2.3777,2.3835,2.3769,2.3833,2.3835,2.3826,2.3951,2.3969,2.4068,2.391,2.3913,2.3914,0,2.3432,2.3472,2.357,2.3605,2.3625,2.3671,2.3717,2.3758,2.3793,2.3799,2.3831,2.3824,2.3884,2.3841,2.3925,2.388,2.3907,2.3919,2.3923,2.3929,2.388,2.3962,2.4099,2.4114,2.3936,2.3934,2.3932,0,2.351,2.3588,2.3657,2.3677,2.3719,2.3752,2.3771,2.3803,2.3833,2.3874,2.3893,2.394,2.3966,2.4003,2.401,2.3977,2.4095,2.4051,2.4103,2.4103,2.4128,2.4127,2.4272,2.4144,2.4144,2.4144,2.4143,0,2.3618,2.3679,2.3693,2.3736,2.3805,2.3808,2.3876,2.3892,2.3922,2.3968,2.3957,2.4001,2.4007,2.4053,2.4059,2.4129,2.414,2.4148,2.4149,2.415,2.4149,2.4168,2.4162,2.4147,2.4147,2.4146,2.4145,0,2.3717,2.3728,2.3803,2.3838,2.3848,2.3897,2.3927,2.3969,2.3981,2.404,2.4054,2.4073,2.4127,2.4137,2.4201,2.4205,2.4289,2.4282,2.4277,2.4277,2.4329,2.4324,2.4492,2.4515,2.437,2.4372,2.4373,0,2.3785,2.3832,2.3872,2.3903,2.3924,2.3973,2.4004,2.4009,2.4042,2.4087,2.4123,2.4176,2.4219,2.4306,2.4326,2.4375,2.437,2.4426,2.4377,2.4377,2.4373,2.4371,2.4376,2.4435,2.4437,2.4438,2.4439,0,2.3907,2.3911,2.3955,2.4004,2.4041,2.4079,2.4114,2.414,2.415,2.4188,2.4243,2.4276,2.4342,2.4395,2.4445,2.4465,2.4455,2.4454,2.4469,2.447,2.4466,2.4471,2.4304,2.445,2.4449,2.4448,2.4448,2.4447,2.3993,2.4035,2.4071,2.4122,2.4149,2.4184,2.4225,2.4243,2.4289,2.4343,2.4344,2.4405,2.4441,2.4506,2.453,2.4579,2.4561,2.4582,2.4588,2.4593,2.4599,2.4458,2.4587,2.4587,2.4587,2.4587,2.4586,0,2.4116,2.4138,2.4185,2.4236,2.4277,2.4263,2.4303,2.4338,2.4392,2.4426,2.4469,2.4534,2.4586,2.4611,2.4663,2.4697,2.4694,2.4711,2.4709,2.4714,2.4611,2.4593,2.4713,2.4713,2.4713,2.4713,2.4712,2.4712,2.4184,2.4255,2.4263,2.4348,2.437,2.443,2.4454,2.4487,2.4514,2.4587,2.4631,2.4647,2.4678,2.4733,2.478,2.4786,2.4807,2.4827,2.483,2.4734,2.4721,2.4709,2.4692,2.4831,2.4831,2.493,2.4931,2.4931]},{"header":{"parameterUnit":"m.s-1","parameterCategory":1,"la1":30.2991,"la2":30.254,"lo1":-89.0895,"lo2":-89.0444,"dy":0.0017,"dx":0.0017,"nx":28,"ny":28,"refTime":"2025-01-31T09:00:00:Z","depth":0,"parameterNumber":3,"parameterNumberName":"V-component_of_WINDS"},"data":[0,0,0,0,0,0,0,0,0,0,0,0,0,0,0,0,0,0,0,0,0,0,0,0,0,0,0,0,0,0,0,0,0,0,0,0,0,0,0,0,0,0,0,0,0,0,0,0,0,0,0,0,0,0,0,0,0,0,-2.0671,-2.0672,0,-2.078,-2.0781,-2.0782,-2.0804,-2.0803,-2.0802,-2.0801,-2.0914,-2.0918,-2.0921,0,0,0,0,0,0,0,0,0,0,0,0,0,-2.0483,-2.0487,-2.0671,-2.0672,-2.0673,-2.078,-2.0781,-2.0783,-2.0804,-2.0803,-2.0802,-2.0801,-2.0913,-2.0917,-2.0922,0,0,0,0,0,0,0,0,0,0,0,0,0,-2.0576,-2.0488,-2.0671,-2.0697,-2.07,-2.0779,-2.0781,-2.0783,-2.0804,-2.0803,-2.0801,-2.08,-2.0911,-2.0917,-2.0922,-2.0983,0,0,-2.094,-2.0942,0,0,0,0,0,0,0,0,-2.057,-2.0583,-2.0692,-2.0695,-2.0699,-2.0777,-2.0757,-2.085,-2.0804,-2.0765,-2.0801,-2.08,-2.0869,-2.0878,-2.0902,-2.0989,-2.0994,-2.094,-2.0944,-2.0946,-2.0948,0,0,0,0,0,0,0,-2.0564,-2.0578,-2.0714,-2.0693,-2.0698,-2.0704,-2.0716,-2.0774,-2.0823,-2.0768,-2.077,-2.0782,-2.0871,-2.0896,-2.0905,-2.0995,-2.094,-2.0945,-2.0949,-2.0951,-2.114,-2.1142,0,0,0,0,0,0,-2.0553,-2.0573,-2.0711,-2.0717,-2.063,-2.0708,-2.0721,-2.0753,-2.0822,-2.0832,-2.0783,-2.0783,-2.0887,-2.0898,-2.0909,-2.0986,-2.0946,-2.0952,-2.0955,-2.1138,-2.114,-2.1142,0,0,0,0,0,0,-2.0549,-2.0565,-2.0706,-2.0646,-2.0664,-2.0713,-2.0748,-2.0756,-2.0781,-2.0834,-2.0843,-2.08,-2.0887,-2.0901,-2.0965,-2.099,-2.0954,-2.0959,-2.1137,-2.1139,-2.1141,-2.114,0,0,0,0,0,0,-2.0543,-2.0563,-2.0586,-2.0646,-2.0667,-2.076,-2.075,-2.0759,-2.0791,-2.0791,-2.0852,-2.0861,-2.0887,-2.0956,-2.0971,-2.0997,-2.0964,-2.1135,-2.1138,-2.114,-2.1138,-2.1142,-2.1146,0,0,0,0,0,-2.0536,-2.0582,-2.0587,-2.0604,-2.0697,-2.0761,-2.0774,-2.0802,-2.0793,-2.0817,-2.0851,-2.0859,-2.0985,-2.0963,-2.0979,-2.1008,-2.1133,-2.1137,-2.114,-2.1137,-2.1142,-2.1146,0,0,0,0,0,0,-2.0524,-2.059,-2.0597,-2.0662,-2.0706,-2.0765,-2.0796,-2.0806,-2.0854,-2.0852,-2.0886,-2.09,-2.0963,-2.0992,-2.0966,-2.1072,-2.1059,-2.1066,-2.105,-2.1056,-2.1059,-2.1051,-2.0968,0,0,0,0,0,-2.0529,-2.0575,-2.063,-2.0683,-2.0704,-2.0746,-2.0776,-2.0794,-2.0841,-2.0859,-2.0898,-2.0944,-2.0994,-2.1026,-2.1075,-2.1143,-2.1157,-2.1171,-2.1175,-2.1177,-2.1183,-2.1223,-2.123,-2.1154,-2.1154,-2.1154,0,0,-2.0539,-2.0581,-2.0608,-2.0681,-2.0717,-2.0766,-2.0762,-2.0812,-2.0849,-2.0867,-2.0931,-2.0961,-2.1014,-2.1081,-2.1112,-2.1107,-2.1207,-2.1182,-2.1184,-2.1188,-2.1227,-2.1234,-2.1241,-2.1156,-2.1156,-2.1155,0,0,-2.0583,-2.0619,-2.0667,-2.0703,-2.0758,-2.0786,-2.0797,-2.0855,-2.0876,-2.094,-2.0955,-2.1,-2.1085,-2.1123,-2.1153,-2.1213,-2.1222,-2.1228,-2.1248,-2.1286,-2.1292,-2.1297,-2.132,-2.1327,-2.1234,-2.1234,-2.1234,0,-2.0589,-2.0661,-2.0691,-2.0741,-2.0774,-2.0793,-2.0843,-2.0877,-2.0945,-2.0967,-2.096,-2.1069,-2.1106,-2.1183,-2.1197,-2.1221,-2.1236,-2.1221,-2.1288,-2.1294,-2.13,-2.1322,-2.133,-2.1234,-2.1234,-2.1234,-2.1234,0,-2.0667,-2.0717,-2.075,-2.0815,-2.0851,-2.0901,-2.0939,-2.0973,-2.0988,-2.1017,-2.1083,-2.1129,-2.1188,-2.1207,-2.1223,-2.1287,-2.1282,-2.1281,-2.1269,-2.1307,-2.1328,-2.1337,-2.1235,-2.1234,-2.1234,-2.1234,0,0,-2.0705,-2.0787,-2.0798,-2.0829,-2.0891,-2.0931,-2.0982,-2.104,-2.1069,-2.1115,-2.116,-2.1233,-2.1233,-2.1268,-2.1288,-2.1321,-2.1368,-2.1317,-2.1319,-2.1326,-2.1443,-2.1443,-2.1452,-2.1374,-2.1376,-2.1377,-2.1438,0,-2.0757,-2.0849,-2.0878,-2.0955,-2.1002,-2.1022,-2.1067,-2.1111,-2.114,-2.1185,-2.1217,-2.1268,-2.1264,-2.1286,-2.1319,-2.1355,-2.1392,-2.1351,-2.1418,-2.142,-2.1404,-2.1463,-2.1463,-2.1519,-2.1447,-2.1448,-2.1449,0,-2.083,-2.0878,-2.096,-2.1017,-2.1038,-2.1078,-2.1134,-2.1177,-2.1228,-2.1246,-2.1286,-2.1304,-2.136,-2.1344,-2.1422,-2.1394,-2.1423,-2.1445,-2.1448,-2.1455,-2.1437,-2.1473,-2.1537,-2.1545,-2.1462,-2.1461,-2.146,0,-2.0851,-2.0936,-2.0996,-2.1021,-2.109,-2.1118,-2.1148,-2.1197,-2.123,-2.128,-2.1302,-2.1358,-2.1388,-2.1431,-2.1464,-2.1449,-2.154,-2.1527,-2.1558,-2.1558,-2.1577,-2.1575,-2.1647,-2.1594,-2.1594,-2.1594,-2.1594,0,-2.0906,-2.0956,-2.1007,-2.1044,-2.11,-2.1133,-2.1189,-2.122,-2.1264,-2.1309,-2.1329,-2.1371,-2.1411,-2.1459,-2.1485,-2.1547,-2.156,-2.1578,-2.1584,-2.1576,-2.1574,-2.1596,-2.1594,-2.1596,-2.1596,-2.1595,-2.1595,0,-2.0939,-2.0975,-2.1042,-2.1102,-2.1118,-2.1157,-2.1209,-2.1246,-2.1276,-2.1332,-2.1348,-2.1395,-2.1452,-2.1489,-2.1562,-2.158,-2.1647,-2.1652,-2.163,-2.1633,-2.1663,-2.166,-2.1752,-2.1767,-2.1703,-2.1704,-2.1704,0,-2.0972,-2.1011,-2.1075,-2.1106,-2.1136,-2.1185,-2.122,-2.1254,-2.129,-2.1351,-2.1382,-2.144,-2.1488,-2.1579,-2.162,-2.1677,-2.1684,-2.1712,-2.1692,-2.1684,-2.1686,-2.1683,-2.1688,-2.1715,-2.1716,-2.1716,-2.1717,0,-2.1028,-2.1044,-2.1092,-2.1147,-2.1188,-2.1233,-2.1278,-2.1303,-2.1345,-2.1384,-2.1443,-2.148,-2.1555,-2.1613,-2.1673,-2.1706,-2.1719,-2.1723,-2.1733,-2.1726,-2.1712,-2.1721,-2.164,-2.172,-2.172,-2.172,-2.1719,-2.1719,-2.1063,-2.1098,-2.1149,-2.1203,-2.1241,-2.1283,-2.1321,-2.1356,-2.1405,-2.1469,-2.1486,-2.1548,-2.1599,-2.1682,-2.1715,-2.1764,-2.1761,-2.1776,-2.178,-2.1783,-2.1784,-2.1703,-2.1775,-2.1775,-2.1775,-2.1775,-2.1775,0,-2.112,-2.1154,-2.1203,-2.1266,-2.1308,-2.1317,-2.1368,-2.1403,-2.1457,-2.1503,-2.1551,-2.1619,-2.1676,-2.1722,-2.1781,-2.1812,-2.182,-2.1827,-2.1825,-2.1833,-2.1783,-2.1769,-2.1819,-2.1819,-2.1819,-2.1819,-2.1819,-2.1819,-2.1155,-2.1216,-2.1239,-2.132,-2.1354,-2.1413,-2.1442,-2.1482,-2.1519,-2.1594,-2.1642,-2.1671,-2.1719,-2.1782,-2.1835,-2.1847,-2.1868,-2.1874,-2.1888,-2.1841,-2.1836,-2.1831,-2.1818,-2.1878,-2.1878,-2.1934,-2.1934,-2.1934]}]]